User: anonymous   Login
Location: Caltech
(34.1382°N, 118.1253°W)
Time: 20:33:56
(UTC-07:00)
Language:

CZ-2C R/B - Orbit

View from above orbital plane
View from above orbital plane
View from above satellite
View from above satellite

Ground track
Ground track

The orbit data is extracted from the following two-line orbital elements,

1 36089U 09061B   15241.57197553  .00000073  00000-0  29897-4 0  9996
2 36089 098.0686 261.5169 0080887 270.7584 244.8059 14.49480528306443
Epoch (UTC): 29 August 2015 13:43:38
Eccentricity: 0.0080887
inclination: 98.0686°
perigee height: 670 km
apogee height: 785 km
right ascension of ascending node: 261.5169°
argument of perigee: 270.7584°
revolutions per day: 14.49480528
mean anomaly at epoch: 244.8059°
orbit number at epoch: 30644

The dashed part of the orbit path shows where the satellite is in the earth's shadow,  

DLR